Retour au catalogue

COSMOS 2090

ActifMilitairePO
NORAD 20735·PAYLOAD·🇷🇺 Russia

Lancé Aug 8, 1990 depuis Plesetsk Cosmodrome

Loading…

Prochains Passages (prochaines 24 heures)

TLE

FraisSource: Space-Track

Époque: Sep 14, 2026, 07:50 UTC

1 20735U 90070A   26257.32650606  .00000011  00000-0  28757-5 0  9999
2 20735  82.5664 214.8918 0013236 217.7468 295.7083 12.65368338667203

Suivez COSMOS 2090 en temps réel avec AllMySat

Download on the App Store